[[{"header":{"parameterUnit":"m.s-1","parameterCategory":1,"la1":30.2991,"la2":30.254,"lo1":-89.0895,"lo2":-89.0444,"dy":0.0017,"dx":0.0017,"nx":28,"ny":28,"refTime":"2025-04-18T21:00:00:Z","depth":0,"parameterNumber":2,"parameterNumberName":"U-component_of_WINDS"},"data":[0,0,0,0,0,0,0,0,0,0,0,0,0,0,0,0,0,0,0,0,0,0,0,0,0,0,0,0,0,0,0,0,0,0,0,0,0,0,0,0,0,0,0,0,0,0,0,0,0,0,0,0,0,0,0,0,0,0,-6.3961,-6.3962,0,-6.4027,-6.4028,-6.4028,-6.3976,-6.3973,-6.3971,-6.3969,-6.4031,-6.4035,-6.4039,0,0,0,0,0,0,0,0,0,0,0,0,0,-6.3786,-6.3789,-6.3961,-6.3962,-6.3963,-6.4027,-6.4028,-6.4029,-6.3976,-6.3973,-6.3971,-6.3968,-6.403,-6.4034,-6.4039,0,0,0,0,0,0,0,0,0,0,0,0,0,-6.3858,-6.379,-6.3961,-6.3944,-6.3944,-6.4027,-6.4028,-6.4029,-6.3977,-6.3973,-6.397,-6.3967,-6.4029,-6.4034,-6.404,-6.4141,0,0,-6.4057,-6.4059,0,0,0,0,0,0,0,0,-6.3854,-6.3864,-6.3946,-6.3946,-6.3945,-6.399,-6.3989,-6.4066,-6.3977,-6.3964,-6.3969,-6.3965,-6.402,-6.4026,-6.4045,-6.4144,-6.4147,-6.4057,-6.4061,-6.4063,-6.4065,0,0,0,0,0,0,0,-6.3849,-6.3861,-6.3987,-6.3947,-6.3947,-6.3932,-6.3939,-6.4003,-6.401,-6.3965,-6.3961,-6.397,-6.4019,-6.404,-6.4047,-6.4147,-6.4057,-6.4062,-6.4065,-6.4068,-6.4331,-6.4334,0,0,0,0,0,0,-6.3846,-6.3857,-6.3985,-6.3989,-6.389,-6.3938,-6.3945,-6.3979,-6.4009,-6.401,-6.3973,-6.3967,-6.4032,-6.404,-6.4048,-6.4167,-6.4063,-6.4068,-6.4071,-6.4327,-6.4332,-6.4336,0,0,0,0,0,0,-6.3843,-6.3858,-6.3982,-6.3922,-6.3937,-6.3945,-6.3983,-6.3982,-6.4003,-6.4015,-6.4015,-6.3994,-6.403,-6.4041,-6.4118,-6.4168,-6.4071,-6.4076,-6.4323,-6.4329,-6.4334,-6.4406,0,0,0,0,0,0,-6.3838,-6.3857,-6.3896,-6.3924,-6.3941,-6.4052,-6.3986,-6.3985,-6.4013,-6.4007,-6.4034,-6.4036,-6.4028,-6.411,-6.4124,-6.4174,-6.408,-6.4319,-6.4326,-6.4332,-6.4399,-6.4414,-6.4426,0,0,0,0,0,-6.3832,-6.3913,-6.3899,-6.3914,-6.399,-6.4055,-6.4065,-6.4056,-6.4018,-6.4056,-6.4064,-6.4035,-6.4162,-6.4119,-6.4134,-6.4187,-6.4315,-6.4324,-6.4332,-6.4393,-6.4411,-6.4425,0,0,0,0,0,0,-6.389,-6.3917,-6.39,-6.3994,-6.4023,-6.4046,-6.4095,-6.4075,-6.4114,-6.4106,-6.4092,-6.4098,-6.418,-6.4192,-6.4143,-6.4286,-6.4232,-6.4244,-6.4274,-6.4291,-6.4304,-6.4297,-6.4085,0,0,0,0,0,-6.3914,-6.3966,-6.3987,-6.4067,-6.4083,-6.4087,-6.4115,-6.4106,-6.4134,-6.4146,-6.4159,-6.4187,-6.4233,-6.4263,-6.4307,-6.4403,-6.4406,-6.4447,-6.446,-6.4471,-6.4479,-6.4529,-6.4546,-6.4363,-6.4363,-6.4362,0,0,-6.3963,-6.3984,-6.4018,-6.4079,-6.41,-6.4153,-6.4097,-6.4155,-6.4193,-6.4154,-6.4227,-6.4239,-6.4269,-6.4356,-6.4395,-6.4368,-6.4532,-6.4481,-6.4489,-6.4492,-6.4539,-6.4556,-6.4572,-6.4368,-6.4367,-6.4366,0,0,-6.4078,-6.4102,-6.417,-6.4194,-6.4228,-6.423,-6.4247,-6.4274,-6.428,-6.4355,-6.4326,-6.4372,-6.4452,-6.4474,-6.4496,-6.4623,-6.4596,-6.4638,-6.4704,-6.4753,-6.4767,-6.478,-6.4822,-6.4838,-6.4647,-6.4648,-6.4648,0,-6.4134,-6.4214,-6.4207,-6.4268,-6.4295,-6.4265,-6.4333,-6.4355,-6.4401,-6.442,-6.439,-6.449,-6.4509,-6.4599,-6.463,-6.4651,-6.4667,-6.4632,-6.4766,-6.4779,-6.4791,-6.483,-6.4847,-6.4652,-6.4651,-6.4651,-6.4651,0,-6.4279,-6.4336,-6.4387,-6.4433,-6.4467,-6.4531,-6.4532,-6.4567,-6.4556,-6.4561,-6.4637,-6.4659,-6.4705,-6.4727,-6.4717,-6.4816,-6.4798,-6.4769,-6.4713,-6.4813,-6.4849,-6.4865,-6.4658,-6.4657,-6.4655,-6.4654,0,0,-6.4429,-6.4473,-6.4492,-6.4512,-6.4549,-6.4591,-6.4654,-6.4701,-6.473,-6.4764,-6.4814,-6.4884,-6.4856,-6.4881,-6.4873,-6.4917,-6.5012,-6.4881,-6.4881,-6.4901,-6.5121,-6.514,-6.5158,-6.4998,-6.5001,-6.5003,-6.5117,0,-6.4543,-6.4653,-6.465,-6.4752,-6.4802,-6.4776,-6.483,-6.4858,-6.4866,-6.4908,-6.4916,-6.4965,-6.4927,-6.4941,-6.4984,-6.4992,-6.5055,-6.4984,-6.5041,-6.5043,-6.5029,-6.5178,-6.5198,-6.5304,-6.5132,-6.5134,-6.5136,0,-6.469,-6.473,-6.4837,-6.4867,-6.4888,-6.4937,-6.4979,-6.5022,-6.5053,-6.5055,-6.5085,-6.507,-6.5132,-6.508,-6.5164,-6.5115,-6.5139,-6.5147,-6.5151,-6.5152,-6.5092,-6.5178,-6.5338,-6.5352,-6.5159,-6.5157,-6.5156,0,-6.4783,-6.4865,-6.4939,-6.4958,-6.4995,-6.503,-6.5047,-6.5075,-6.5103,-6.5141,-6.5159,-6.5203,-6.5226,-6.5261,-6.5258,-6.5221,-6.5342,-6.529,-6.5343,-6.5343,-6.5365,-6.5363,-6.5527,-6.5389,-6.5389,-6.5388,-6.5388,0,-6.4908,-6.4974,-6.4981,-6.5026,-6.5099,-6.5095,-6.5167,-6.518,-6.5205,-6.5251,-6.5233,-6.5276,-6.5272,-6.5316,-6.5315,-6.5383,-6.5394,-6.5396,-6.5394,-6.5395,-6.5394,-6.5406,-6.5397,-6.5393,-6.5392,-6.5391,-6.539,0,-6.5023,-6.5031,-6.5109,-6.5139,-6.5148,-6.52,-6.5225,-6.5267,-6.5275,-6.5333,-6.5346,-6.5358,-6.5408,-6.541,-6.5468,-6.5467,-6.5549,-6.5541,-6.5538,-6.5535,-6.5587,-6.558,-6.576,-6.5782,-6.5634,-6.5636,-6.5637,0,-6.5099,-6.5149,-6.5186,-6.5216,-6.5235,-6.5285,-6.5314,-6.5314,-6.5345,-6.5385,-6.5422,-6.5471,-6.5509,-6.5591,-6.5603,-6.5647,-6.5637,-6.5698,-6.5643,-6.5642,-6.5633,-6.5628,-6.5632,-6.5706,-6.5708,-6.5709,-6.571,0,-6.5234,-6.5236,-6.528,-6.5327,-6.5363,-6.5399,-6.5433,-6.5458,-6.5461,-6.5498,-6.555,-6.558,-6.564,-6.5688,-6.5731,-6.5747,-6.5728,-6.5728,-6.5742,-6.5741,-6.5736,-6.5736,-6.5562,-6.5723,-6.5721,-6.572,-6.572,-6.5719,-6.5329,-6.5372,-6.5404,-6.5454,-6.548,-6.5512,-6.5553,-6.5567,-6.5611,-6.566,-6.5657,-6.5714,-6.5744,-6.5801,-6.582,-6.5864,-6.5843,-6.5864,-6.5868,-6.5872,-6.5876,-6.5734,-6.5872,-6.5872,-6.5872,-6.5871,-6.5871,0,-6.5459,-6.5479,-6.5526,-6.5574,-6.5613,-6.5597,-6.5633,-6.5666,-6.5717,-6.5748,-6.5787,-6.5846,-6.5893,-6.5911,-6.5956,-6.5988,-6.598,-6.5999,-6.5994,-6.5998,-6.5894,-6.5875,-6.6004,-6.6004,-6.6004,-6.6004,-6.6004,-6.6004,-6.5531,-6.5601,-6.5608,-6.5691,-6.5711,-6.5767,-6.5789,-6.5818,-6.5843,-6.591,-6.595,-6.5962,-6.5987,-6.6034,-6.6076,-6.608,-6.6096,-6.6117,-6.6117,-6.6019,-6.6005,-6.5992,-6.5974,-6.6122,-6.6122,-6.6217,-6.6218,-6.6218]},{"header":{"parameterUnit":"m.s-1","parameterCategory":1,"la1":30.2991,"la2":30.254,"lo1":-89.0895,"lo2":-89.0444,"dy":0.0017,"dx":0.0017,"nx":28,"ny":28,"refTime":"2025-04-18T21:00:00:Z","depth":0,"parameterNumber":3,"parameterNumberName":"V-component_of_WINDS"},"data":[0,0,0,0,0,0,0,0,0,0,0,0,0,0,0,0,0,0,0,0,0,0,0,0,0,0,0,0,0,0,0,0,0,0,0,0,0,0,0,0,0,0,0,0,0,0,0,0,0,0,0,0,0,0,0,0,0,0,3.2369,3.2369,0,3.2382,3.2382,3.2382,3.2375,3.2374,3.2374,3.2374,3.2385,3.2386,3.2386,0,0,0,0,0,0,0,0,0,0,0,0,0,3.2337,3.2337,3.2369,3.2369,3.2369,3.2382,3.2382,3.2382,3.2375,3.2374,3.2374,3.2374,3.2385,3.2386,3.2386,0,0,0,0,0,0,0,0,0,0,0,0,0,3.235,3.2338,3.2369,3.2367,3.2367,3.2382,3.2382,3.2383,3.2375,3.2374,3.2374,3.2373,3.2385,3.2386,3.2387,3.2403,0,0,3.239,3.239,0,0,0,0,0,0,0,0,3.235,3.2352,3.2367,3.2367,3.2367,3.2376,3.2375,3.2389,3.2375,3.2372,3.2374,3.2373,3.2383,3.2384,3.2387,3.2404,3.2404,3.239,3.239,3.2391,3.2391,0,0,0,0,0,0,0,3.2349,3.2351,3.2374,3.2367,3.2368,3.2365,3.2367,3.2378,3.238,3.2372,3.2372,3.2373,3.2382,3.2386,3.2387,3.2405,3.239,3.239,3.2391,3.2391,3.2438,3.2438,0,0,0,0,0,0,3.2348,3.235,3.2374,3.2375,3.2357,3.2367,3.2368,3.2374,3.238,3.238,3.2374,3.2373,3.2385,3.2386,3.2388,3.2409,3.2391,3.2391,3.2392,3.2437,3.2438,3.2438,0,0,0,0,0,0,3.2347,3.235,3.2373,3.2362,3.2365,3.2368,3.2374,3.2374,3.2378,3.2381,3.2381,3.2377,3.2385,3.2386,3.24,3.2409,3.2392,3.2393,3.2436,3.2437,3.2438,3.2451,0,0,0,0,0,0,3.2346,3.235,3.2356,3.2363,3.2366,3.2385,3.2375,3.2375,3.238,3.2379,3.2385,3.2385,3.2384,3.2399,3.2401,3.241,3.2394,3.2435,3.2437,3.2438,3.2449,3.2452,3.2454,0,0,0,0,0,3.2345,3.2359,3.2357,3.236,3.2374,3.2386,3.2388,3.2387,3.2381,3.2388,3.239,3.2385,3.2408,3.24,3.2403,3.2412,3.2435,3.2436,3.2438,3.2448,3.2451,3.2454,0,0,0,0,0,0,3.2352,3.2359,3.2357,3.2373,3.2379,3.2385,3.2393,3.239,3.2397,3.2396,3.2395,3.2396,3.241,3.2413,3.2404,3.243,3.242,3.2422,3.2428,3.2431,3.2433,3.2432,3.2394,0,0,0,0,0,3.2356,3.2366,3.2371,3.2384,3.2388,3.239,3.2395,3.2394,3.24,3.2402,3.2406,3.2411,3.242,3.2425,3.2433,3.245,3.2451,3.2458,3.246,3.2462,3.2464,3.2474,3.2477,3.2443,3.2443,3.2443,0,0,3.2363,3.2368,3.2374,3.2386,3.2391,3.2401,3.2392,3.2402,3.241,3.2404,3.2417,3.242,3.2426,3.2442,3.2449,3.2444,3.2474,3.2464,3.2465,3.2466,3.2476,3.2479,3.2482,3.2444,3.2444,3.2444,0,0,3.2381,3.2385,3.2398,3.2403,3.2411,3.2413,3.2416,3.2422,3.2424,3.2438,3.2434,3.2443,3.2457,3.2462,3.2467,3.2489,3.2485,3.2492,3.2504,3.2513,3.2516,3.2519,3.2527,3.253,3.2493,3.2493,3.2493,0,3.2388,3.2404,3.2404,3.2416,3.2422,3.2418,3.2431,3.2436,3.2445,3.2449,3.2444,3.2464,3.2467,3.2485,3.2491,3.2494,3.2498,3.2491,3.2516,3.2518,3.252,3.2529,3.2532,3.2494,3.2494,3.2494,3.2494,0,3.2413,3.2424,3.2433,3.2444,3.2451,3.2462,3.2465,3.2472,3.2471,3.2473,3.2488,3.2493,3.2502,3.2507,3.2505,3.2524,3.2521,3.2516,3.2507,3.2524,3.2532,3.2535,3.2495,3.2495,3.2495,3.2495,0,0,3.2434,3.2447,3.245,3.2456,3.2465,3.2473,3.2486,3.2496,3.2502,3.2509,3.252,3.2533,3.2529,3.2534,3.2534,3.2543,3.2561,3.2536,3.2537,3.2541,3.2583,3.2587,3.2591,3.2559,3.2559,3.256,3.2583,0,3.2453,3.2475,3.2477,3.2497,3.2508,3.2506,3.2516,3.2523,3.2526,3.2536,3.2538,3.2548,3.2542,3.2545,3.2554,3.2557,3.2569,3.2555,3.2568,3.2569,3.2567,3.2594,3.2598,3.262,3.2586,3.2586,3.2587,0,3.2478,3.2488,3.2509,3.2518,3.2523,3.2533,3.2543,3.2552,3.256,3.2562,3.2569,3.2567,3.258,3.2571,3.2589,3.2579,3.2585,3.2587,3.2588,3.2589,3.2579,3.2596,3.2626,3.263,3.2591,3.2591,3.259,0,3.2492,3.251,3.2526,3.2531,3.2542,3.2549,3.2554,3.2561,3.2568,3.2577,3.2582,3.2592,3.2597,3.2605,3.2607,3.26,3.2625,3.2616,3.2627,3.2627,3.2632,3.2632,3.2663,3.2636,3.2635,3.2635,3.2635,0,3.2513,3.2526,3.2533,3.2542,3.2557,3.256,3.2575,3.2579,3.2586,3.2597,3.2595,3.2605,3.2606,3.2616,3.2618,3.2633,3.2635,3.2637,3.2637,3.2637,3.2637,3.264,3.2639,3.2636,3.2636,3.2636,3.2636,0,3.2531,3.2536,3.2553,3.2563,3.2566,3.2577,3.2585,3.2594,3.2598,3.2611,3.2614,3.2619,3.2632,3.2634,3.2648,3.2649,3.2667,3.2666,3.2665,3.2665,3.2676,3.2675,3.2711,3.2716,3.2685,3.2685,3.2685,0,3.2544,3.2555,3.2567,3.2574,3.258,3.2591,3.2599,3.2602,3.261,3.2621,3.2629,3.2641,3.2651,3.267,3.2675,3.2686,3.2685,3.2697,3.2686,3.2687,3.2686,3.2685,3.2687,3.2699,3.2699,3.2699,3.27,0,3.2567,3.257,3.2581,3.2594,3.2603,3.2613,3.2622,3.2628,3.2632,3.2641,3.2654,3.2662,3.2677,3.2689,3.2701,3.2705,3.2703,3.2703,3.2706,3.2706,3.2706,3.2707,3.267,3.2702,3.2702,3.2702,3.2701,3.2701,3.2584,3.2594,3.2604,3.2617,3.2625,3.2634,3.2644,3.2649,3.2661,3.2674,3.2675,3.2689,3.2698,3.2713,3.2719,3.273,3.2726,3.2731,3.2732,3.2733,3.2735,3.2704,3.2732,3.2732,3.2732,3.2732,3.2732,0,3.2608,3.2615,3.2627,3.2641,3.2651,3.265,3.266,3.2669,3.2682,3.2691,3.2701,3.2717,3.2729,3.2736,3.2748,3.2756,3.2755,3.2759,3.2758,3.2759,3.2737,3.2733,3.2759,3.2759,3.2759,3.2759,3.2759,3.2759,3.2621,3.2638,3.2642,3.2663,3.267,3.2685,3.2691,3.27,3.2707,3.2725,3.2736,3.2741,3.2749,3.2762,3.2773,3.2775,3.278,3.2784,3.2785,3.2764,3.2761,3.2758,3.2755,3.2785,3.2785,3.2807,3.2807,3.2807]}]]